Weather History for KNEL - November, 2012

Change the Weather History Date:

Tuesday, November 6, 2012

  Actual Average Record
Temperature  
Mean Temperature 36 °F -  
Max Temperature 39 °F 55 °F 63 °F (1996)
Min Temperature 27 °F 39 °F 27 °F (2012)
Degree Days  
Heating Degree Days 28    
Moisture  
Dew Point 22 °F    
Average Humidity 57    
Maximum Humidity 78    
Minimum Humidity 40    
Precipitation  
Precipitation 0.00 in - - ()
Sea Level Pressure  
Sea Level Pressure 30.15 in    
Wind  
Wind Speed 4 mph (NNE)    
Max Wind Speed 10 mph    
Max Gust Speed -    
Visibility 10 miles    
Events      
Averages and records for this station are not official NWS values.
T = Trace of Precipitation, MM = Missing Value Source: NWS Daily Summary

Daily Weather History Graph

Daily Weather History Graph

Search for Another Location

Airport or City:

Trip Planner

Search our weather history database for the weather conditions in past years. The results will help you decide how hot, cold, wet, or windy it might be!

Date:

Astronomy

Nov. 06, 2012 Rise Set
Actual Time 6:32 AM EST 4:48 PM EST
Civil Twilight 6:04 AM EST 5:17 PM EST
Nautical Twilight 5:32 AM EST 5:49 PM EST
Astronomical Twilight 5:00 AM EST 6:21 PM EST
Moon 11:25 PM EST (11/6) 12:23 PM EST (11/6)
Length of Visible Light 11h 12m
Length of Day
10h 16m
Waning Gibbous, 53% of the Moon is Illuminated
Nov 6
Waning Gibbous
Nov 6
Last Quarter
Nov 13
New
Nov 20
First Quarter
Nov 28
Full

Hourly Weather History & Observations

Time (EST) Temp. Windchill Dew Point Humidity Pressure Visibility Wind Dir Wind Speed Gust Speed Precip Events Conditions
12:00 AM 27.0 °F 23.0 °F 21.0 °F 78% 30.17 in 10.0 mi NW 3.5 mph - N/A   Clear
1:00 AM 30.0 °F 26.5 °F 19.9 °F 66% 30.17 in 10.0 mi NNW 3.5 mph - N/A   Clear
2:00 AM 30.0 °F 26.5 °F 19.9 °F 66% 30.17 in 10.0 mi North 3.5 mph - N/A   Clear
3:00 AM 30.0 °F - 19.0 °F 64% 30.17 in 10.0 mi Calm Calm - N/A   Clear
4:22 AM - - - N/A% - - North - - N/A   Unknown
5:00 AM 28.0 °F - 19.9 °F 72% 30.18 in 10.0 mi Calm Calm - N/A   Clear
6:00 AM 28.0 °F - 19.9 °F 72% 30.18 in 10.0 mi Calm Calm - N/A   Clear
7:00 AM 30.0 °F 26.5 °F 21.0 °F 69% 30.20 in 10.0 mi Variable 3.5 mph - N/A   Scattered Clouds
8:00 AM 34.0 °F 28.8 °F 21.0 °F 59% 30.21 in 10.0 mi NNE 5.8 mph - N/A   Clear
9:00 AM 39.0 °F 34.8 °F 23.0 °F 53% 30.20 in 10.0 mi NE 5.8 mph - N/A   Overcast
10:00 AM 39.9 °F 33.4 °F 24.1 °F 53% 30.22 in 10.0 mi ENE 10.4 mph - N/A   Overcast
11:00 AM 42.1 °F 37.1 °F 24.1 °F 49% 30.22 in - East 8.1 mph - N/A   Overcast
12:00 PM 44.1 °F 40.1 °F 25.0 °F 47% 30.19 in - Variable 6.9 mph - N/A   Overcast
1:00 PM 45.0 °F 41.2 °F 24.1 °F 44% 30.15 in - NE 6.9 mph - N/A   Clear
2:00 PM 46.0 °F 43.1 °F 23.0 °F 40% 30.14 in - Variable 5.8 mph - N/A   Clear
3:00 PM 46.0 °F 43.9 °F 23.0 °F 40% 30.13 in - Variable 4.6 mph - N/A   Clear
4:00 PM 43.0 °F 37.7 °F 23.0 °F 45% 30.12 in - ENE 9.2 mph - N/A   Clear
5:00 PM 39.0 °F 35.7 °F 21.0 °F 49% 30.14 in - ENE 4.6 mph - N/A   Clear
6:00 PM 36.0 °F 33.3 °F 21.9 °F 57% 30.12 in - North 3.5 mph - N/A   Clear
7:00 PM 35.1 °F 32.2 °F 21.9 °F 59% 30.11 in - North 3.5 mph - N/A   Clear
8:00 PM 36.0 °F 31.1 °F 21.9 °F 57% 30.08 in - North 5.8 mph - N/A   Clear
10:00 PM 39.9 °F 35.1 °F 27.0 °F 60% 30.05 in - Variable 6.9 mph - N/A   Overcast
11:00 PM 39.9 °F 37.8 °F 26.1 °F 58% 30.04 in - Variable 3.5 mph - N/A   Mostly Cloudy